Location: Arcusa
(42.3167°N, 0.0833°W)
Time: 12:15:23
(UTC+00:00)

COSMO-SKYMED 1 - Pass Details

Date: 25 January 2020
Orbit: 621 x 623 km, 97.9° (Epoch: 17 February)

Event Time Altitude Azimuth Distance (km) Brightness Sun altitude
Rises 05:04:51 0° 162° (SSE) 2,889 6.3 -25.1°
Reaches altitude 10° 05:07:02 10° 161° (SSE) 1,987 5.4 -24.6°
Maximum altitude 05:11:21 78° 75° (ENE) 642 2.6 -23.9°
Enters shadow 05:12:53 40° 357° (N) 927 3.3 -23.6°
